DW4118 Weather Reports


Display with metric or nautical units.
time (UTC)temp
F
wind
direction
speed
MPH
gust
MPH
rain 1hr
in
rain 24hr
in
rain mn
in
humidity
%
barometer
mb
20260507191554 62 228 1.0 5.0 0.00 0.00 0.00 60 1016.7
20260507190052 61 250 1.0 4.0 0.00 0.00 0.00 62 1016.8
20260507184549 60 133 0.0 4.0 0.00 0.00 0.00 64 1017.0
20260507183049 62 51 0.0 2.0 0.00 0.00 0.00 65 1017.2
20260507181544 60 297 1.0 5.0 0.00 0.00 0.00 64 1017.3
20260507180052 60 155 0.0 5.0 0.00 0.00 0.00 67 1017.4
20260507174539 59 263 0.0 4.0 0.00 0.00 0.00 70 1017.4
20260507173040 57 303 1.0 5.0 0.00 0.00 0.00 72 1017.5
20260507171537 57 279 0.0 4.0 0.00 0.00 0.00 73 1017.5
20260507170031 56 305 0.0 4.0 0.00 0.00 0.00 73 1017.5
20260507164531 56 308 0.0 3.0 0.00 0.00 0.00 76 1017.6
20260507163025 54 276 0.0 2.0 0.00 0.00 0.00 77 1017.6
20260507161535 53 320 0.0 1.0 0.00 0.00 0.00 80 1017.6
20260507160036 51 278 0.0 3.0 0.00 0.00 0.00 82 1017.7
20260507154518 50 335 0.0 1.0 0.00 0.00 0.00 84 1017.9
20260507153017 50 283 0.0 2.0 0.00 0.00 0.00 85 1017.8
20260507151516 49 293 0.0 1.0 0.00 0.00 0.00 85 1017.8
20260507150020 49 275 0.0 1.0 0.00 0.00 0.00 86 1017.8
20260507144526 48 252 0.0 1.0 0.00 0.00 0.00 86 1017.8
20260507143015 48 272 0.0 1.0 0.00 0.00 0.00 87 1017.8
20260507141519 48 271 0.0 1.0 0.00 0.00 0.00 88 1017.6
20260507140014 48 271 0.0 0.0 0.00 0.00 0.00 89 1017.4
20260507134513 48 271 0.0 0.0 0.00 0.00 0.00 89 1017.3
20260507133013 48 271 0.0 0.0 0.00 0.00 0.00 89 1017.5
20260507131511 48 271 0.0 0.0 0.00 0.00 0.00 89 1017.5
20260507130022 48 271 0.0 0.0 0.00 0.00 0.00 89 1017.5
20260507124511 48 271 0.0 0.0 0.00 0.00 0.00 90 1017.6
20260507123007 48 271 0.0 0.0 0.00 0.00 0.00 90 1017.5
20260507121507 48 271 0.0 1.0 0.00 0.00 0.00 90 1017.6
20260507120006 48 257 0.0 0.0 0.00 0.00 0.00 90 1017.5
20260507114505 48 257 0.0 0.0 0.00 0.00 0.00 90 1017.6
20260507113006 49 257 0.0 0.0 0.00 0.00 0.00 90 1017.7
20260507111503 49 257 0.0 1.0 0.00 0.00 0.00 90 1017.6
20260507110101 49 41 0.0 1.0 0.00 0.00 0.00 90 1017.9
20260507104600 49 312 0.0 0.0 0.00 0.00 0.00 90 1017.9
20260507103058 49 311 0.0 0.0 0.00 0.00 0.00 90 1017.9
20260507101558 49 311 0.0 2.0 0.00 0.00 0.00 90 1018.1
20260507100057 49 323 0.0 0.0 0.00 0.00 0.00 90 1018.1
20260507094553 49 323 0.0 0.0 0.00 0.00 0.00 90 1018.2
20260507093052 49 323 0.0 0.0 0.00 0.00 0.00 90 1018.3
20260507091652 49 323 0.0 0.0 0.00 0.00 0.00 90 1018.3
20260507090049 50 323 0.0 0.0 0.00 0.00 0.00 89 1018.5
20260507084550 50 295 0.0 1.0 0.00 0.00 0.00 88 1018.6
20260507083046 50 255 0.0 1.0 0.00 0.00 0.00 88 1018.5
20260507081548 50 255 0.0 2.0 0.00 0.00 0.00 87 1018.6
20260507080044 51 291 0.0 1.0 0.00 0.00 0.00 87 1018.5
20260507074546 51 294 0.0 1.0 0.00 0.00 0.00 87 1018.4
20260507073044 51 282 0.0 1.0 0.00 0.00 0.00 87 1018.3
20260507071538 51 283 0.0 2.0 0.00 0.00 0.00 86 1018.3
20260507070037 52 289 0.0 1.0 0.00 0.00 0.00 87 1018.3
20260507064534 52 291 0.0 1.0 0.00 0.00 0.00 87 1018.2
20260507063048 53 283 0.0 0.0 0.00 0.00 0.00 87 1018.3
20260507061534 53 283 0.0 0.0 0.00 0.00 0.00 86 1018.3
20260507060041 53 283 0.0 0.0 0.00 0.00 0.00 86 1018.4
20260507054530 53 283 0.0 1.0 0.00 0.00 0.00 86 1018.3
20260507053028 54 290 0.0 1.0 0.00 0.00 0.00 86 1018.3
20260507051527 54 299 0.0 2.0 0.00 0.00 0.00 86 1018.4
20260507050033 54 264 0.0 3.0 0.00 0.00 0.00 86 1018.3
20260507044526 55 304 0.0 3.0 0.00 0.00 0.00 86 1018.3
20260507043024 55 312 0.0 1.0 0.00 0.00 0.00 86 1018.0
20260507041523 55 260 0.0 1.0 0.00 0.00 0.00 86 1017.9
20260507040025 56 319 0.0 0.0 0.00 0.00 0.00 87 1017.7
20260507034532 56 293 0.0 1.0 0.00 0.00 0.00 87 1017.5
20260507033022 57 276 0.0 2.0 0.00 0.00 0.00 86 1017.2
20260507031522 58 287 0.0 0.0 0.00 0.00 0.00 84 1017.0
20260507030021 60 286 0.0 0.0 0.00 0.00 0.00 81 1016.9
20260507024525 60 286 0.0 1.0 0.00 0.00 0.00 79 1016.9
20260507023024 61 298 0.0 0.0 0.00 0.00 0.00 78 1016.9
20260507021519 62 298 0.0 1.0 0.00 0.00 0.00 76 1017.0
20260507020029 63 255 0.0 2.0 0.00 0.00 0.00 75 1017.1
20260507014519 63 319 0.0 1.0 0.00 0.00 0.00 72 1017.0
20260507013038 64 30 0.0 1.0 0.00 0.00 0.00 71 1017.1
20260507011517 65 359 0.0 0.0 0.00 0.00 0.00 71 1017.1
20260507010016 64 1 0.0 1.0 0.00 0.00 0.00 68 1017.2
20260507004517 65 306 0.0 3.0 0.00 0.00 0.00 67 1017.2
20260507003004 65 84 0.0 2.0 0.00 0.00 0.00 70 1017.4
20260507001504 66 1 0.0 3.0 0.00 0.00 0.00 66 1017.3
20260507000003 65 64 0.0 4.0 0.00 0.00 0.00 69 1017.2
20260506234503 64 334 0.0 4.0 0.00 0.00 0.00 70 1017.3
20260506233002 64 359 0.0 2.0 0.00 0.00 0.00 71 1017.3
20260506231502 65 315 2.0 4.0 0.00 0.00 0.00 67 1017.4
20260506230001 65 9 0.0 5.0 0.00 0.00 0.00 70 1017.4
20260506224505 65 83 1.0 4.0 0.00 0.00 0.00 70 1017.4
20260506223100 65 23 1.0 8.0 0.00 0.00 0.00 69 1017.6
20260506221601 65 15 0.0 4.0 0.00 0.00 0.00 68 1017.5
20260506220101 65 151 1.0 6.0 0.00 0.00 0.00 69 1017.7
20260506214657 65 64 0.0 6.0 0.00 0.00 0.00 69 1017.9
20260506213056 65 311 0.0 3.0 0.00 0.00 0.00 70 1017.8
20260506211606 64 333 0.0 4.0 0.00 0.00 0.00 74 1017.9
20260506210052 63 59 0.0 4.0 0.00 0.00 0.00 74 1017.9
20260506204551 64 87 1.0 3.0 0.00 0.00 0.00 72 1017.9
20260506203049 63 26 0.0 4.0 0.00 0.00 0.00 75 1018.3
20260506201549 62 337 0.0 4.0 0.00 0.00 0.00 77 1018.2
20260506200049 63 264 1.0 5.0 0.00 0.00 0.00 73 1018.2
20260506194549 62 54 0.0 2.0 0.00 0.00 0.00 77 1018.1
20260506193043 61 278 0.0 3.0 0.00 0.00 0.00 81 1018.2